This is the latest recevied weather packets stored in our database for station/object KB3FKJ. If no packets are shown the sender has not sent any weather packets the latest 10 day(s).
| Time | Temp. | Humidity | Pressure | Rain* | Wind** | Luminosity | Snow |
|---|---|---|---|---|---|---|---|
| 1777646749 | 10° C | 61% | 1012.7 hPa | 0 mm | - | 51 W/m² | - |
| 1777646444 | 10.56° C | 63% | 1012.9 hPa | 0 mm | - | 46 W/m² | - |
| 1777646141 | 10.56° C | 63% | 1012.9 hPa | 0 mm | - | 52 W/m² | - |
| 1777645838 | 10° C | 66% | 1012.7 hPa | 0 mm | - | 48 W/m² | - |
| 1777645535 | 9.44° C | 67% | 1013 hPa | 0 mm | - | 64 W/m² | - |
| 1777645231 | 9.44° C | 69% | 1013 hPa | 0 mm | - | 132 W/m² | - |
| 1777644927 | 9.44° C | 69% | 1013.2 hPa | 0 mm | - | 172 W/m² | - |
| 1777644625 | 9.44° C | 69% | 1013.1 hPa | 0 mm | - | 105 W/m² | - |
| 1777644321 | 8.89° C | 70% | 1013.2 hPa | 0 mm | - | 98 W/m² | - |
| 1777644017 | 8.89° C | 70% | 1013.5 hPa | 0 mm | - | 122 W/m² | - |
| 1777643708 | 8.33° C | 68% | 1013.4 hPa | 0 mm | - | 182 W/m² | - |
| 1777643406 | 8.33° C | 70% | 1013.5 hPa | 0 mm | - | 259 W/m² | - |
| 1777643102 | 8.89° C | 68% | 1013.6 hPa | 0 mm | - | 101 W/m² | - |
| 1777642799 | 8.33° C | 74% | 1013.3 hPa | 0 mm | - | 74 W/m² | - |
| 1777642495 | 8.89° C | 71% | 1013.4 hPa | 0 mm | - | 366 W/m² | - |
| 1777642191 | 7.78° C | 73% | 1013.5 hPa | 0 mm | - | 352 W/m² | - |
| 1777641889 | 7.78° C | 74% | 1013.3 hPa | 0 mm | - | 345 W/m² | - |
| 1777641584 | 7.78° C | 77% | 1013.5 hPa | 0 mm | - | 323 W/m² | - |
| 1777641283 | 7.22° C | 79% | 1013.4 hPa | 0 mm | - | 311 W/m² | - |
| 1777640980 | 7.22° C | 77% | 1013.4 hPa | 0 mm | - | 287 W/m² | - |
| 1777640677 | 6.67° C | 79% | 1013.4 hPa | 0 mm | - | 77 W/m² | - |
| 1777640374 | 6.67° C | 80% | 1013.7 hPa | 0 mm | - | 162 W/m² | - |
| 1777640071 | 6.11° C | 80% | 1013.7 hPa | 0 mm | - | 196 W/m² | - |
| 1777639767 | 6.11° C | 81% | 1013.8 hPa | 0 mm | - | 135 W/m² | - |
| 1777639466 | 6.11° C | 81% | 1013.7 hPa | 0 mm | - | 40 W/m² | - |
* Rain latest hour (hover to see other rain measurements)
** Current wind speed in m/s (hover to see current wind gust speed)